星链-32606 (STARLINK-32606)

导读

STARLINK-32606是美国SpaceX公司星链星座的成员,于2024年11月14日发射。星链计划旨在构建全球低轨卫星互联网,为全球提供高速低延迟宽带服务。该卫星属于低轨卫星,加入了SpaceX规模庞大的星座组网,助力拓展覆盖范围,同时星链持续推进技术升级,目前已实现全球化服务覆盖,支持包括手机直连等多元应用场景。

基本信息
目录编号:
61978
目录名称:
STARLINK-32606
国际标识:
2024-210V
轨道中心:
EARTH
卫星名称:
星链-32606
卫星全名:
星链-32606 (STARLINK-32606)
卫星状态:
在轨 (已飞行659 天)
发射日期:
2024-11-14 UTC
国别 :
美国 (US)
星等 :
--
轨道信息
数据来源 国际轨道数据
星历时间: 2026-09-04T09:43:08+0800
7小时前
查看轨道信息
半长轴: 6861.17km
偏心率: 0.000154
轨道倾角: 43.003°
近地点辐角 273.978°
升交点赤经 252.202°
平近点角 86.089°
近地点: 481.976km
远地点: 484.09km
周期: 94.266分钟
每日圈数: 15.275855
详细信息
固有亮度:
5
最大亮度:
2.5
卫星平台:
Starlink V1.0
覆盖范围:
全球
运营商:
太空探索技术公司
运营商所在国:
美国
制造商(研发单位):
太空探索技术公司
制造商所在国:
美国
使用方式:
暂无
卫星简介
Starlink 计划是 SpaceX 推出的全球卫星互联网项目,通过发射低轨道卫星,为全球尤其是偏远地区提供高速、低延迟的互联网服务。自 2019 年起,Starlink 已部署数千颗卫星,旨在缩小全球数字鸿沟,推动互联网普及。该项目还为军事、航空等行业提供通信支持,带来广泛经济效益。
2D轨道图
3D轨道图
轨道高度分析图
轨道倾角分析图
轨道综合分析图
查看轨道综合分析图
交会数据列表
事件ID 空间交会对象 最接近时刻(TCA) 交会距离 交会风险概率(CRP) 交会风险指数(CRI) 操作
CDM_260904-125905-485506-197821
2026-09-04T
12:59:49+0000
0.753 km
远距离
3.319372E-5 中风险 0.65
CDM_260904-024705-485506-197821
2026-09-04T
02:47:49+0000
1.244 km
极远距离
6.046117E-6 低风险 0.51
CDM_260906-094605-829106-197821
2026-09-06T
09:46:58+0000
1.486 km
极远距离
5.655655E-6 低风险 0.5
CDM_260829-035905-485506-197822
2026-08-29T
03:59:34+0000
1.487 km
极远距离
3.36516E-6 低风险 0.46
CDM_260904-042105-485506-197821
2026-09-04T
04:21:58+0000
1.544 km
极远距离
2.998464E-6 低风险 0.45
CDM_260829-120605-984606-197822
2026-08-29T
12:06:09+0000
1.750 km
极远距离
2.692488E-6 低风险 0.44
CDM_260904-143305-485506-197821
2026-09-04T
14:33:58+0000
1.698 km
极远距离
2.263904E-6 低风险 0.42
CDM_260829-103205-984606-197821
2026-08-29T
10:32:00+0000
2.116 km
极远距离
1.656711E-6 低风险 0.39
CDM_260903-135105-992906-197821
2026-09-03T
13:51:32+0000
2.405 km
极远距离
1.497584E-6 低风险 0.39
CDM_260904-112505-485506-197821
2026-09-04T
11:25:40+0000
2.124 km
极远距离
1.28837E-6 低风险 0.37